Year,Month,Day,Hour,Minute,Value (Times are PST for temperature in C)
2017,06,27,00,00,13.70
2017,06,27,00,01,13.70
2017,06,27,00,02,13.70
2017,06,27,00,03,13.70
2017,06,27,00,04,13.70
2017,06,27,00,05,13.70
2017,06,27,00,06,13.70
2017,06,27,00,07,13.70
2017,06,27,00,08,13.70
2017,06,27,00,09,13.70
2017,06,27,00,10,13.70
2017,06,27,00,11,13.70
2017,06,27,00,12,13.70
2017,06,27,00,13,13.70
2017,06,27,00,14,13.60
2017,06,27,00,15,13.60
2017,06,27,00,16,13.60
2017,06,27,00,17,13.60
2017,06,27,00,18,13.60
2017,06,27,00,19,13.60
2017,06,27,00,20,13.60
2017,06,27,00,21,13.60
2017,06,27,00,22,13.60
2017,06,27,00,23,13.60
2017,06,27,00,24,13.60
2017,06,27,00,25,13.60
2017,06,27,00,26,13.60
2017,06,27,00,27,13.60
2017,06,27,00,28,13.60
2017,06,27,00,29,13.60
2017,06,27,00,30,13.60
2017,06,27,00,31,13.60
2017,06,27,00,32,13.60
2017,06,27,00,33,13.50
2017,06,27,00,34,13.50
2017,06,27,00,35,13.50
2017,06,27,00,36,13.50
2017,06,27,00,37,13.50
2017,06,27,00,38,13.50
2017,06,27,00,39,13.40
2017,06,27,00,40,13.50
2017,06,27,00,41,13.50
2017,06,27,00,42,13.50
2017,06,27,00,43,13.50
2017,06,27,00,44,13.50
2017,06,27,00,45,13.50
2017,06,27,00,46,13.40
2017,06,27,00,47,13.40
2017,06,27,00,48,13.30
2017,06,27,00,49,13.30
2017,06,27,00,50,13.20
2017,06,27,00,51,13.20
2017,06,27,00,52,13.20
2017,06,27,00,53,13.10
2017,06,27,00,54,13.10
2017,06,27,00,55,13.10
2017,06,27,00,56,13.00
2017,06,27,00,57,13.00
2017,06,27,00,58,13.00
2017,06,27,00,59,12.90
2017,06,27,01,00,12.90
2017,06,27,01,01,12.90
2017,06,27,01,02,12.80
2017,06,27,01,03,12.80
2017,06,27,01,04,12.70
2017,06,27,01,05,12.70
2017,06,27,01,06,12.70
2017,06,27,01,07,12.70
2017,06,27,01,08,12.70
2017,06,27,01,09,12.60
2017,06,27,01,10,12.60
2017,06,27,01,11,12.60
2017,06,27,01,12,12.60
2017,06,27,01,13,12.60
2017,06,27,01,14,12.60
2017,06,27,01,15,12.50
2017,06,27,01,16,12.50
2017,06,27,01,17,12.50
2017,06,27,01,18,12.40
2017,06,27,01,19,12.40
2017,06,27,01,20,12.40
2017,06,27,01,21,12.40
2017,06,27,01,22,12.40
2017,06,27,01,23,12.40
2017,06,27,01,24,12.30
2017,06,27,01,25,12.30
2017,06,27,01,26,12.30
2017,06,27,01,27,12.30
2017,06,27,01,28,12.30
2017,06,27,01,29,12.30
2017,06,27,01,30,12.30
2017,06,27,01,31,12.30
2017,06,27,01,32,12.30
2017,06,27,01,33,12.30
2017,06,27,01,34,12.20
2017,06,27,01,35,12.20
2017,06,27,01,36,12.20
2017,06,27,01,37,12.20
2017,06,27,01,38,12.20
2017,06,27,01,39,12.10
2017,06,27,01,40,12.10
2017,06,27,01,41,12.10
2017,06,27,01,42,12.10
2017,06,27,01,43,12.00
2017,06,27,01,44,12.00
2017,06,27,01,45,12.00
2017,06,27,01,46,12.00
2017,06,27,01,47,11.90
2017,06,27,01,48,11.90
2017,06,27,01,49,11.90
2017,06,27,01,50,11.90
2017,06,27,01,51,11.90
2017,06,27,01,52,11.80
2017,06,27,01,53,11.80
2017,06,27,01,54,11.80
2017,06,27,01,55,11.80
2017,06,27,01,56,11.80
2017,06,27,01,57,11.80
2017,06,27,01,58,11.80
2017,06,27,01,59,11.80
2017,06,27,02,00,11.80
2017,06,27,02,01,11.80
2017,06,27,02,02,11.80
2017,06,27,02,03,11.70
2017,06,27,02,04,11.70
2017,06,27,02,05,11.70
2017,06,27,02,06,11.70
2017,06,27,02,07,11.70
2017,06,27,02,08,11.70
2017,06,27,02,09,11.70
2017,06,27,02,10,11.70
2017,06,27,02,11,11.70
2017,06,27,02,12,11.60
2017,06,27,02,13,11.60
2017,06,27,02,14,11.60
2017,06,27,02,15,11.60
2017,06,27,02,16,11.60
2017,06,27,02,17,11.60
2017,06,27,02,18,11.50
2017,06,27,02,19,11.50
2017,06,27,02,20,11.50
2017,06,27,02,21,11.50
2017,06,27,02,22,11.50
2017,06,27,02,23,11.50
2017,06,27,02,24,11.50
2017,06,27,02,25,11.50
2017,06,27,02,26,11.50
2017,06,27,02,27,11.50
2017,06,27,02,28,11.40
2017,06,27,02,29,11.40
2017,06,27,02,30,11.50
2017,06,27,02,31,11.40
2017,06,27,02,32,11.40
2017,06,27,02,33,11.40
2017,06,27,02,34,11.40
2017,06,27,02,35,11.40
2017,06,27,02,36,11.40
2017,06,27,02,37,11.40
2017,06,27,02,38,11.40
2017,06,27,02,39,11.30
2017,06,27,02,40,11.30
2017,06,27,02,41,11.30
2017,06,27,02,42,11.30
2017,06,27,02,43,11.30
2017,06,27,02,44,11.30
2017,06,27,02,45,11.30
2017,06,27,02,46,11.30
2017,06,27,02,47,11.30
2017,06,27,02,48,11.30
2017,06,27,02,49,11.30
2017,06,27,02,50,11.30
2017,06,27,02,51,11.30
2017,06,27,02,52,11.30
2017,06,27,02,53,11.30
2017,06,27,02,54,11.30
2017,06,27,02,55,11.30
2017,06,27,02,56,11.30
2017,06,27,02,57,11.30
2017,06,27,02,58,11.30
2017,06,27,02,59,11.30
2017,06,27,03,00,11.30
2017,06,27,03,01,11.30
2017,06,27,03,02,11.30
2017,06,27,03,03,11.30
2017,06,27,03,04,11.30
2017,06,27,03,05,11.20
2017,06,27,03,06,11.20
2017,06,27,03,07,11.20
2017,06,27,03,08,11.20
2017,06,27,03,09,11.20
2017,06,27,03,10,11.20
2017,06,27,03,11,11.20
2017,06,27,03,12,11.20
2017,06,27,03,13,11.20
2017,06,27,03,14,11.20
2017,06,27,03,15,11.20
2017,06,27,03,16,11.20
2017,06,27,03,17,11.20
2017,06,27,03,18,11.10
2017,06,27,03,19,11.10
2017,06,27,03,20,11.10
2017,06,27,03,21,11.10
2017,06,27,03,22,11.10
2017,06,27,03,23,11.10
2017,06,27,03,24,11.00
2017,06,27,03,25,11.00
2017,06,27,03,26,11.00
2017,06,27,03,27,11.00
2017,06,27,03,28,11.00
2017,06,27,03,29,11.00
2017,06,27,03,30,11.00
2017,06,27,03,31,11.00
2017,06,27,03,32,10.90
2017,06,27,03,33,10.90
2017,06,27,03,34,10.90
2017,06,27,03,35,10.90
2017,06,27,03,36,10.90
2017,06,27,03,37,10.90
2017,06,27,03,38,10.90
2017,06,27,03,39,10.90
2017,06,27,03,40,10.90
2017,06,27,03,41,10.90
2017,06,27,03,42,10.90
2017,06,27,03,43,10.90
2017,06,27,03,44,10.90
2017,06,27,03,45,10.90
2017,06,27,03,46,10.90
2017,06,27,03,47,10.90
2017,06,27,03,48,10.90
2017,06,27,03,49,10.90
2017,06,27,03,50,10.90
2017,06,27,03,51,10.80
2017,06,27,03,52,10.80
2017,06,27,03,53,10.80
2017,06,27,03,54,10.80
2017,06,27,03,55,10.80
2017,06,27,03,56,10.80
2017,06,27,03,57,10.80
2017,06,27,03,58,10.80
2017,06,27,03,59,10.80
2017,06,27,04,00,10.80
2017,06,27,04,01,10.80
2017,06,27,04,02,10.80
2017,06,27,04,03,10.70
2017,06,27,04,04,10.70
2017,06,27,04,05,10.70
2017,06,27,04,06,10.70
2017,06,27,04,07,10.70
2017,06,27,04,08,10.70
2017,06,27,04,09,10.70
2017,06,27,04,10,10.70
2017,06,27,04,11,10.70
2017,06,27,04,12,10.70
2017,06,27,04,13,10.80
2017,06,27,04,14,10.80
2017,06,27,04,15,10.80
2017,06,27,04,16,10.80
2017,06,27,04,17,10.90
2017,06,27,04,18,10.90
2017,06,27,04,19,10.90
2017,06,27,04,20,10.90
2017,06,27,04,21,10.90
2017,06,27,04,22,10.90
2017,06,27,04,23,10.90
2017,06,27,04,24,10.90
2017,06,27,04,25,10.90
2017,06,27,04,26,10.90
2017,06,27,04,27,10.80
2017,06,27,04,28,10.80
2017,06,27,04,29,10.80
2017,06,27,04,30,10.80
2017,06,27,04,31,10.80
2017,06,27,04,32,10.70
2017,06,27,04,33,10.70
2017,06,27,04,34,10.70
2017,06,27,04,35,10.70
2017,06,27,04,36,10.70
2017,06,27,04,37,10.70
2017,06,27,04,38,10.60
2017,06,27,04,39,10.60
2017,06,27,04,40,10.60
2017,06,27,04,41,10.60
2017,06,27,04,42,10.60
2017,06,27,04,43,10.60
2017,06,27,04,44,10.60
2017,06,27,04,45,10.60
2017,06,27,04,46,10.60
2017,06,27,04,47,10.60
2017,06,27,04,48,10.50
2017,06,27,04,49,10.50
2017,06,27,04,50,10.50
2017,06,27,04,51,10.50
2017,06,27,04,52,10.50
2017,06,27,04,53,10.50
2017,06,27,04,54,10.50
2017,06,27,04,55,10.50
2017,06,27,04,56,10.50
2017,06,27,04,57,10.50
2017,06,27,04,58,10.50
2017,06,27,04,59,10.50
2017,06,27,05,00,10.50
2017,06,27,05,01,10.50
2017,06,27,05,02,10.50
2017,06,27,05,03,10.50
2017,06,27,05,04,10.50
2017,06,27,05,05,10.50
2017,06,27,05,06,10.50
2017,06,27,05,07,10.50
2017,06,27,05,08,10.50
2017,06,27,05,09,10.60
2017,06,27,05,10,10.60
2017,06,27,05,11,10.60
2017,06,27,05,12,10.60
2017,06,27,05,13,10.60
2017,06,27,05,14,10.60
2017,06,27,05,15,10.60
2017,06,27,05,16,10.50
2017,06,27,05,17,10.50
2017,06,27,05,18,10.60
2017,06,27,05,19,10.50
2017,06,27,05,20,10.50
2017,06,27,05,21,10.50
2017,06,27,05,22,10.50
2017,06,27,05,23,10.50
2017,06,27,05,24,10.50
2017,06,27,05,25,10.50
2017,06,27,05,26,10.50
2017,06,27,05,27,10.40
2017,06,27,05,28,10.40
2017,06,27,05,29,10.40
2017,06,27,05,30,10.40
2017,06,27,05,31,10.40
2017,06,27,05,32,10.40
2017,06,27,05,33,10.40
2017,06,27,05,34,10.40
2017,06,27,05,35,10.40
2017,06,27,05,36,10.40
2017,06,27,05,37,10.40
2017,06,27,05,38,10.40
2017,06,27,05,39,10.40
2017,06,27,05,40,10.40
2017,06,27,05,41,10.40
2017,06,27,05,42,10.40
2017,06,27,05,43,10.40
2017,06,27,05,44,10.40
2017,06,27,05,45,10.40
2017,06,27,05,46,10.40
2017,06,27,05,47,10.40
2017,06,27,05,48,10.40
2017,06,27,05,49,10.40
2017,06,27,05,50,10.40
2017,06,27,05,51,10.40
2017,06,27,05,52,10.40
2017,06,27,05,53,10.40
2017,06,27,05,54,10.40
2017,06,27,05,55,10.40
2017,06,27,05,56,10.40
2017,06,27,05,57,10.40
2017,06,27,05,58,10.40
2017,06,27,05,59,10.40
2017,06,27,06,00,10.40
2017,06,27,06,01,10.40
2017,06,27,06,02,10.40
2017,06,27,06,03,10.40
2017,06,27,06,04,10.40
2017,06,27,06,05,10.40
2017,06,27,06,06,10.40
2017,06,27,06,07,10.40
2017,06,27,06,08,10.40
2017,06,27,06,09,10.40
2017,06,27,06,10,10.40
2017,06,27,06,11,10.40
2017,06,27,06,12,10.40
2017,06,27,06,13,10.50
2017,06,27,06,14,10.50
2017,06,27,06,15,10.50
2017,06,27,06,16,10.50
2017,06,27,06,17,10.60
2017,06,27,06,18,10.60
2017,06,27,06,19,10.60
2017,06,27,06,20,10.60
2017,06,27,06,21,10.60
2017,06,27,06,22,10.60
2017,06,27,06,23,10.60
2017,06,27,06,24,10.70
2017,06,27,06,25,10.70
2017,06,27,06,26,10.70
2017,06,27,06,27,10.70
2017,06,27,06,28,10.80
2017,06,27,06,29,10.80
2017,06,27,06,30,10.80
2017,06,27,06,31,10.80
2017,06,27,06,32,10.80
2017,06,27,06,33,10.90
2017,06,27,06,34,10.90
2017,06,27,06,35,10.90
2017,06,27,06,36,10.90
2017,06,27,06,37,10.90
2017,06,27,06,38,11.00
2017,06,27,06,39,11.00
2017,06,27,06,40,11.00
2017,06,27,06,41,11.10
2017,06,27,06,42,11.10
2017,06,27,06,43,11.20
2017,06,27,06,44,11.20
2017,06,27,06,45,11.20
2017,06,27,06,46,11.30
2017,06,27,06,47,11.30
2017,06,27,06,48,11.40
2017,06,27,06,49,11.40
2017,06,27,06,50,11.40
2017,06,27,06,51,11.50
2017,06,27,06,52,11.60
2017,06,27,06,53,11.60
2017,06,27,06,54,11.60
2017,06,27,06,55,11.70
2017,06,27,06,56,11.70
2017,06,27,06,57,11.70
2017,06,27,06,58,11.80
2017,06,27,06,59,11.80
2017,06,27,07,00,11.80
2017,06,27,07,01,11.90
2017,06,27,07,02,11.90
2017,06,27,07,03,12.00
2017,06,27,07,04,12.00
2017,06,27,07,05,12.10
2017,06,27,07,06,12.20
2017,06,27,07,07,12.20
2017,06,27,07,08,12.30
2017,06,27,07,09,12.30
2017,06,27,07,10,12.40
2017,06,27,07,11,12.40
2017,06,27,07,12,12.50
2017,06,27,07,13,12.60
2017,06,27,07,14,12.60
2017,06,27,07,15,12.70
2017,06,27,07,16,12.70
2017,06,27,07,17,12.80
2017,06,27,07,18,12.80
2017,06,27,07,19,12.80
2017,06,27,07,20,12.90
2017,06,27,07,21,12.90
2017,06,27,07,22,13.00
2017,06,27,07,23,13.00
2017,06,27,07,24,13.10
2017,06,27,07,25,13.10
2017,06,27,07,26,13.20
2017,06,27,07,27,13.30
2017,06,27,07,28,13.30
2017,06,27,07,29,13.40
2017,06,27,07,30,13.40
2017,06,27,07,31,13.50
2017,06,27,07,32,13.50
2017,06,27,07,33,13.60
2017,06,27,07,34,13.70
2017,06,27,07,35,13.70
2017,06,27,07,36,13.60
2017,06,27,07,37,13.60
2017,06,27,07,38,13.70
2017,06,27,07,39,13.70
2017,06,27,07,40,13.70
2017,06,27,07,41,13.70
2017,06,27,07,42,13.80
2017,06,27,07,43,13.80
2017,06,27,07,44,13.90
2017,06,27,07,45,13.90
2017,06,27,07,46,14.00
2017,06,27,07,47,14.10
2017,06,27,07,48,14.10
2017,06,27,07,49,14.10
2017,06,27,07,50,14.10
2017,06,27,07,51,14.20
2017,06,27,07,52,14.30
2017,06,27,07,53,14.30
2017,06,27,07,54,14.30
2017,06,27,07,55,14.30
2017,06,27,07,56,14.30
2017,06,27,07,57,14.30
2017,06,27,07,58,14.30
2017,06,27,07,59,14.30
2017,06,27,08,00,14.30
2017,06,27,08,01,14.30
2017,06,27,08,02,14.30
2017,06,27,08,03,14.20
2017,06,27,08,04,14.20
2017,06,27,08,05,14.20
2017,06,27,08,06,14.20
2017,06,27,08,07,14.20
2017,06,27,08,08,14.20
2017,06,27,08,09,14.20
2017,06,27,08,10,14.20
2017,06,27,08,11,14.20
2017,06,27,08,12,14.20
2017,06,27,08,13,14.20
2017,06,27,08,14,14.20
2017,06,27,08,15,14.20
2017,06,27,08,16,14.20
2017,06,27,08,17,14.20
2017,06,27,08,18,14.20
2017,06,27,08,19,14.20
2017,06,27,08,20,14.20
2017,06,27,08,21,14.20
2017,06,27,08,22,14.20
2017,06,27,08,23,14.10
2017,06,27,08,24,14.20
2017,06,27,08,25,14.10
2017,06,27,08,26,14.10
2017,06,27,08,27,14.20
2017,06,27,08,28,14.20
2017,06,27,08,29,14.10
2017,06,27,08,30,14.10
2017,06,27,08,31,14.10
2017,06,27,08,32,14.00
2017,06,27,08,33,14.00
2017,06,27,08,34,14.00
2017,06,27,08,35,14.00
2017,06,27,08,36,14.10
2017,06,27,08,37,14.10
2017,06,27,08,38,14.20
2017,06,27,08,39,14.20
2017,06,27,08,40,14.20
2017,06,27,08,41,14.20
2017,06,27,08,42,14.30
2017,06,27,08,43,14.30
2017,06,27,08,44,14.30
2017,06,27,08,45,14.30
2017,06,27,08,46,14.30
2017,06,27,08,47,14.30
2017,06,27,08,48,14.30
2017,06,27,08,49,14.40
2017,06,27,08,50,14.40
2017,06,27,08,51,14.40
2017,06,27,08,52,14.40
2017,06,27,08,53,14.50
2017,06,27,08,54,14.50
2017,06,27,08,55,14.50
2017,06,27,08,56,14.60
2017,06,27,08,57,14.60
2017,06,27,08,58,14.60
2017,06,27,08,59,14.60
2017,06,27,09,00,14.60
2017,06,27,09,01,14.60
2017,06,27,09,02,14.60
2017,06,27,09,03,14.60
2017,06,27,09,04,14.70
2017,06,27,09,05,14.70
2017,06,27,09,06,14.70
2017,06,27,09,07,14.70
2017,06,27,09,08,14.70
2017,06,27,09,09,14.70
2017,06,27,09,10,14.60
2017,06,27,09,11,14.50
2017,06,27,09,12,14.50
2017,06,27,09,13,14.40
2017,06,27,09,14,14.40
2017,06,27,09,15,14.40
2017,06,27,09,16,14.50
2017,06,27,09,17,14.50
2017,06,27,09,18,14.70
2017,06,27,09,19,14.70
2017,06,27,09,20,14.70
2017,06,27,09,21,14.70
2017,06,27,09,22,14.70
2017,06,27,09,23,14.60
2017,06,27,09,24,14.60
2017,06,27,09,25,14.60
2017,06,27,09,26,14.70
2017,06,27,09,27,14.70
2017,06,27,09,28,14.70
2017,06,27,09,29,14.70
2017,06,27,09,30,14.70
2017,06,27,09,31,14.60
2017,06,27,09,32,14.60
2017,06,27,09,33,14.60
2017,06,27,09,34,14.60
2017,06,27,09,35,14.70
2017,06,27,09,36,14.70
2017,06,27,09,37,14.70
2017,06,27,09,38,14.70
2017,06,27,09,39,14.80
2017,06,27,09,40,14.80
2017,06,27,09,41,14.80
2017,06,27,09,42,14.80
2017,06,27,09,43,14.80
2017,06,27,09,44,14.90
2017,06,27,09,45,14.90
2017,06,27,09,46,15.00
2017,06,27,09,47,15.00
2017,06,27,09,48,15.00
2017,06,27,09,49,15.00
2017,06,27,09,50,15.00
2017,06,27,09,51,15.10
2017,06,27,09,52,15.10
2017,06,27,09,53,15.10
2017,06,27,09,54,15.00
2017,06,27,09,55,15.00
2017,06,27,09,56,14.90
2017,06,27,09,57,14.90
2017,06,27,09,58,15.00
2017,06,27,09,59,15.00
2017,06,27,10,00,14.90
2017,06,27,10,01,14.90
2017,06,27,10,02,14.90
2017,06,27,10,03,14.80
2017,06,27,10,04,14.80
2017,06,27,10,05,14.70
2017,06,27,10,06,14.70
2017,06,27,10,07,14.70
2017,06,27,10,08,14.60
2017,06,27,10,09,14.60
2017,06,27,10,10,14.60
2017,06,27,10,11,14.60
2017,06,27,10,12,14.60
2017,06,27,10,13,14.60
2017,06,27,10,14,14.60
2017,06,27,10,15,14.60
2017,06,27,10,16,14.60
2017,06,27,10,17,14.60
2017,06,27,10,18,14.50
2017,06,27,10,19,14.40
2017,06,27,10,20,14.40
2017,06,27,10,21,14.30
2017,06,27,10,22,14.20
2017,06,27,10,23,14.20
2017,06,27,10,24,14.10
2017,06,27,10,25,14.10
2017,06,27,10,26,14.10
2017,06,27,10,27,14.10
2017,06,27,10,28,14.10
2017,06,27,10,29,14.20
2017,06,27,10,30,14.20
2017,06,27,10,31,14.20
2017,06,27,10,32,14.20
2017,06,27,10,33,14.10
2017,06,27,10,34,14.10
2017,06,27,10,35,14.10
2017,06,27,10,36,14.20
2017,06,27,10,37,14.20
2017,06,27,10,38,14.20
2017,06,27,10,39,14.10
2017,06,27,10,40,14.20
2017,06,27,10,41,14.20
2017,06,27,10,42,14.20
2017,06,27,10,43,14.20
2017,06,27,10,44,14.20
2017,06,27,10,45,14.20
2017,06,27,10,46,14.30
2017,06,27,10,47,14.30
2017,06,27,10,48,14.30
2017,06,27,10,49,14.30
2017,06,27,10,50,14.30
2017,06,27,10,51,14.40
2017,06,27,10,52,14.50
2017,06,27,10,53,14.50
2017,06,27,10,54,14.60
2017,06,27,10,55,14.50
2017,06,27,10,56,14.50
2017,06,27,10,57,14.50
2017,06,27,10,58,14.60
2017,06,27,10,59,14.70
2017,06,27,11,00,14.70
2017,06,27,11,01,14.70
2017,06,27,11,02,14.70
2017,06,27,11,03,14.70
2017,06,27,11,04,14.70
2017,06,27,11,05,14.70
2017,06,27,11,06,14.70
2017,06,27,11,07,14.70
2017,06,27,11,08,14.80
2017,06,27,11,09,14.80
2017,06,27,11,10,14.80
2017,06,27,11,11,14.80
2017,06,27,11,12,14.80
2017,06,27,11,13,14.80
2017,06,27,11,14,14.90
2017,06,27,11,15,14.90
2017,06,27,11,16,14.80
2017,06,27,11,17,14.80
2017,06,27,11,18,14.70
2017,06,27,11,19,14.70
2017,06,27,11,20,14.60
2017,06,27,11,21,14.50
2017,06,27,11,22,14.40
2017,06,27,11,23,14.40
2017,06,27,11,24,14.40
2017,06,27,11,25,14.50
2017,06,27,11,26,14.50
2017,06,27,11,27,14.40
2017,06,27,11,28,14.40
2017,06,27,11,29,14.30
2017,06,27,11,30,14.30
2017,06,27,11,31,14.30
2017,06,27,11,32,14.30
2017,06,27,11,33,14.30
2017,06,27,11,34,14.30
2017,06,27,11,35,14.30
2017,06,27,11,36,14.30
2017,06,27,11,37,14.40
2017,06,27,11,38,14.40
2017,06,27,11,39,14.50
2017,06,27,11,40,14.50
2017,06,27,11,41,14.40
2017,06,27,11,42,14.40
2017,06,27,11,43,14.50
2017,06,27,11,44,14.60
2017,06,27,11,45,14.60
2017,06,27,11,46,14.60
2017,06,27,11,47,14.60
2017,06,27,11,48,14.70
2017,06,27,11,49,14.70
2017,06,27,11,50,14.80
2017,06,27,11,51,14.80
2017,06,27,11,52,14.70
2017,06,27,11,53,14.50
2017,06,27,11,54,14.40
2017,06,27,11,55,14.30
2017,06,27,11,56,14.30
2017,06,27,11,57,14.30
2017,06,27,11,58,14.30
2017,06,27,11,59,14.40
2017,06,27,12,00,14.50
2017,06,27,12,01,14.60
2017,06,27,12,02,14.60
2017,06,27,12,03,14.60
2017,06,27,12,04,14.60
2017,06,27,12,05,14.70
2017,06,27,12,06,14.70
2017,06,27,12,07,14.80
2017,06,27,12,08,14.80
2017,06,27,12,09,14.80
2017,06,27,12,10,14.80
2017,06,27,12,11,14.80
2017,06,27,12,12,14.70
2017,06,27,12,13,14.60
2017,06,27,12,14,14.60
2017,06,27,12,15,14.60
2017,06,27,12,16,14.60
2017,06,27,12,17,14.70
2017,06,27,12,18,14.80
2017,06,27,12,19,14.90
2017,06,27,12,20,15.00
2017,06,27,12,21,15.00
2017,06,27,12,22,15.10
2017,06,27,12,23,15.10
2017,06,27,12,24,15.10
2017,06,27,12,25,15.20
2017,06,27,12,26,15.30
2017,06,27,12,27,15.40
2017,06,27,12,28,15.40
2017,06,27,12,29,15.50
2017,06,27,12,30,15.60
2017,06,27,12,31,15.60
2017,06,27,12,32,15.70
2017,06,27,12,33,15.70
2017,06,27,12,34,15.70
2017,06,27,12,35,15.60
2017,06,27,12,36,15.60
2017,06,27,12,37,15.50
2017,06,27,12,38,15.50
2017,06,27,12,39,15.50
2017,06,27,12,40,15.50
2017,06,27,12,41,15.40
2017,06,27,12,42,15.40
2017,06,27,12,43,15.40
2017,06,27,12,44,15.40
2017,06,27,12,45,15.40
2017,06,27,12,46,15.40
2017,06,27,12,47,15.30
2017,06,27,12,48,15.30
2017,06,27,12,49,15.30
2017,06,27,12,50,15.30
2017,06,27,12,51,15.20
2017,06,27,12,52,15.20
2017,06,27,12,53,15.40
2017,06,27,12,54,15.60
2017,06,27,12,55,15.70
2017,06,27,12,56,15.90
2017,06,27,12,57,16.00
2017,06,27,12,58,16.00
2017,06,27,12,59,16.10
2017,06,27,13,00,16.10
2017,06,27,13,01,16.20
2017,06,27,13,02,16.30
2017,06,27,13,03,16.40
2017,06,27,13,04,16.40
2017,06,27,13,05,16.40
2017,06,27,13,06,16.40
2017,06,27,13,07,16.30
2017,06,27,13,08,16.30
2017,06,27,13,09,16.40
2017,06,27,13,10,16.40
2017,06,27,13,11,16.40
2017,06,27,13,12,16.40
2017,06,27,13,13,16.20
2017,06,27,13,14,16.10
2017,06,27,13,15,16.00
2017,06,27,13,16,15.90
2017,06,27,13,17,15.80
2017,06,27,13,18,15.70
2017,06,27,13,19,15.60
2017,06,27,13,20,15.50
2017,06,27,13,21,15.40
2017,06,27,13,22,15.40
2017,06,27,13,23,15.40
2017,06,27,13,24,15.40
2017,06,27,13,25,15.30
2017,06,27,13,26,15.30
2017,06,27,13,27,15.20
2017,06,27,13,28,15.20
2017,06,27,13,29,15.20
2017,06,27,13,30,15.10
2017,06,27,13,31,15.00
2017,06,27,13,32,14.90
2017,06,27,13,33,14.90
2017,06,27,13,34,14.80
2017,06,27,13,35,14.80
2017,06,27,13,36,14.80
2017,06,27,13,37,14.90
2017,06,27,13,38,14.90
2017,06,27,13,39,15.00
2017,06,27,13,40,15.00
2017,06,27,13,41,15.20
2017,06,27,13,42,15.10
2017,06,27,13,43,15.10
2017,06,27,13,44,15.00
2017,06,27,13,45,14.90
2017,06,27,13,46,14.80
2017,06,27,13,47,14.80
2017,06,27,13,48,14.70
2017,06,27,13,49,14.80
2017,06,27,13,50,14.80
2017,06,27,13,51,14.80
2017,06,27,13,52,14.80
2017,06,27,13,53,14.80
2017,06,27,13,54,14.80
2017,06,27,13,55,14.80
2017,06,27,13,56,14.80
2017,06,27,13,57,14.80
2017,06,27,13,58,14.90
2017,06,27,13,59,14.90
2017,06,27,14,00,15.00
2017,06,27,14,01,15.10
2017,06,27,14,02,15.20
2017,06,27,14,03,15.20
2017,06,27,14,04,15.30
2017,06,27,14,05,15.30
2017,06,27,14,06,15.30
2017,06,27,14,07,15.30
2017,06,27,14,08,15.30
2017,06,27,14,09,15.30
2017,06,27,14,10,15.30
2017,06,27,14,11,15.40
2017,06,27,14,12,15.50
2017,06,27,14,13,15.50
2017,06,27,14,14,15.60
2017,06,27,14,15,15.70
2017,06,27,14,16,15.80
2017,06,27,14,17,16.00
2017,06,27,14,18,16.10
2017,06,27,14,19,16.20
2017,06,27,14,20,16.30
2017,06,27,14,21,16.30
2017,06,27,14,22,16.40
2017,06,27,14,23,16.60
2017,06,27,14,24,16.70
2017,06,27,14,25,16.70
2017,06,27,14,26,16.70
2017,06,27,14,27,16.60
2017,06,27,14,28,16.60
2017,06,27,14,29,16.70
2017,06,27,14,30,16.70
2017,06,27,14,31,16.70
2017,06,27,14,32,16.60
2017,06,27,14,33,16.60
2017,06,27,14,34,16.50
2017,06,27,14,35,16.50
2017,06,27,14,36,16.50
2017,06,27,14,37,16.50
2017,06,27,14,38,16.50
2017,06,27,14,39,16.50
2017,06,27,14,40,16.50
2017,06,27,14,41,16.50
2017,06,27,14,42,16.60
2017,06,27,14,43,16.60
2017,06,27,14,44,16.60
2017,06,27,14,45,16.60
2017,06,27,14,46,16.70
2017,06,27,14,47,16.70
2017,06,27,14,48,16.60
2017,06,27,14,49,16.70
2017,06,27,14,50,16.80
2017,06,27,14,51,16.90
2017,06,27,14,52,17.00
2017,06,27,14,53,16.90
2017,06,27,14,54,16.90
2017,06,27,14,55,16.90
2017,06,27,14,56,16.90
2017,06,27,14,57,16.90
2017,06,27,14,58,17.00
2017,06,27,14,59,17.10
2017,06,27,15,00,17.10
2017,06,27,15,01,17.20
2017,06,27,15,02,17.20
2017,06,27,15,03,17.10
2017,06,27,15,04,17.20
2017,06,27,15,05,17.20
2017,06,27,15,06,17.20
2017,06,27,15,07,17.30
2017,06,27,15,08,17.20
2017,06,27,15,09,17.20
2017,06,27,15,10,17.20
2017,06,27,15,11,17.20
2017,06,27,15,12,17.30
2017,06,27,15,13,17.30
2017,06,27,15,14,17.30
2017,06,27,15,15,17.30
2017,06,27,15,16,17.30
2017,06,27,15,17,17.30
2017,06,27,15,18,17.30
2017,06,27,15,19,17.30
2017,06,27,15,20,17.30
2017,06,27,15,21,17.30
2017,06,27,15,22,17.30
2017,06,27,15,23,17.30
2017,06,27,15,24,17.30
2017,06,27,15,25,17.30
2017,06,27,15,26,17.30
2017,06,27,15,27,17.40
2017,06,27,15,28,17.50
2017,06,27,15,29,17.70
2017,06,27,15,30,17.80
2017,06,27,15,31,17.90
2017,06,27,15,32,18.00
2017,06,27,15,33,18.00
2017,06,27,15,34,18.10
2017,06,27,15,35,18.20
2017,06,27,15,36,18.20
2017,06,27,15,37,18.30
2017,06,27,15,38,18.30
2017,06,27,15,39,18.30
2017,06,27,15,40,18.30
2017,06,27,15,41,18.30
2017,06,27,15,42,18.30
2017,06,27,15,43,18.40
2017,06,27,15,44,18.40
2017,06,27,15,45,18.50
2017,06,27,15,46,18.50
2017,06,27,15,47,18.40
2017,06,27,15,48,18.50
2017,06,27,15,49,18.40
2017,06,27,15,50,18.40
2017,06,27,15,51,18.40
2017,06,27,15,52,18.30
2017,06,27,15,53,18.30
2017,06,27,15,54,18.30
2017,06,27,15,55,18.30
2017,06,27,15,56,18.30
2017,06,27,15,57,18.40
2017,06,27,15,58,18.50
2017,06,27,15,59,18.60
2017,06,27,16,00,18.70
2017,06,27,16,01,18.80
2017,06,27,16,02,18.80
2017,06,27,16,03,18.80
2017,06,27,16,04,18.80
2017,06,27,16,05,18.80
2017,06,27,16,06,18.70
2017,06,27,16,07,18.70
2017,06,27,16,08,18.70
2017,06,27,16,09,18.70
2017,06,27,16,10,18.70
2017,06,27,16,11,18.70
2017,06,27,16,12,18.70
2017,06,27,16,13,18.70
2017,06,27,16,14,18.70
2017,06,27,16,15,18.60
2017,06,27,16,16,18.60
2017,06,27,16,17,18.70
2017,06,27,16,18,18.70
2017,06,27,16,19,18.80
2017,06,27,16,20,18.80
2017,06,27,16,21,18.80
2017,06,27,16,22,18.80
2017,06,27,16,23,18.80
2017,06,27,16,24,18.80
2017,06,27,16,25,18.90
2017,06,27,16,26,18.90
2017,06,27,16,27,18.90
2017,06,27,16,28,18.90
2017,06,27,16,29,18.90
2017,06,27,16,30,18.90
2017,06,27,16,31,18.90
2017,06,27,16,32,18.90
2017,06,27,16,33,18.80
2017,06,27,16,34,18.70
2017,06,27,16,35,18.60
2017,06,27,16,36,18.50
2017,06,27,16,37,18.40
2017,06,27,16,38,18.30
2017,06,27,16,39,18.20
2017,06,27,16,40,18.10
2017,06,27,16,41,18.00
2017,06,27,16,42,17.90
2017,06,27,16,43,17.90
2017,06,27,16,44,18.00
2017,06,27,16,45,18.10
2017,06,27,16,46,18.20
2017,06,27,16,47,18.30
2017,06,27,16,48,18.40
2017,06,27,16,49,18.40
2017,06,27,16,50,18.30
2017,06,27,16,51,18.20
2017,06,27,16,52,18.20
2017,06,27,16,53,18.20
2017,06,27,16,54,18.20
2017,06,27,16,55,18.10
2017,06,27,16,56,18.10
2017,06,27,16,57,18.10
2017,06,27,16,58,18.10
2017,06,27,16,59,18.20
2017,06,27,17,00,18.20
2017,06,27,17,01,18.20
2017,06,27,17,02,18.20
2017,06,27,17,03,18.20
2017,06,27,17,04,18.20
2017,06,27,17,05,18.20
2017,06,27,17,06,18.30
2017,06,27,17,07,18.30
2017,06,27,17,08,18.20
2017,06,27,17,09,18.20
2017,06,27,17,10,18.10
2017,06,27,17,11,18.10
2017,06,27,17,12,18.10
2017,06,27,17,13,18.10
2017,06,27,17,14,18.10
2017,06,27,17,15,18.10
2017,06,27,17,16,18.00
2017,06,27,17,17,18.00
2017,06,27,17,18,18.00
2017,06,27,17,19,18.10